| time (UTC) | temp F | wind direction | speed MPH | gust MPH | rain 1hr in | rain 24hr in | rain mn in | humidity % | barometer mb |
| 20260831053530 | 60 | 355 | 1.0 | 6.0 | 0.00 | 0.00 | 0.00 | 80 | 1018.6 |
| 20260831053104 | 60 | 0 | 1.0 | 7.0 | 0.00 | 0.00 | 0.00 | 80 | 1018.5 |
| 20260831052529 | 60 | 275 | 1.0 | 7.0 | 0.00 | 0.00 | 0.00 | 80 | 1018.6 |
| 20260831052029 | 61 | 322 | 1.0 | 7.0 | 0.00 | 0.00 | 0.00 | 80 | 1018.5 |
| 20260831051549 | 61 | 270 | 1.0 | 8.0 | 0.00 | 0.00 | 0.00 | 80 | 1018.5 |
| 20260831051029 | 61 | 308 | 1.0 | 8.0 | 0.00 | 0.00 | 0.00 | 80 | 1018.5 |
| 20260831050529 | 61 | 0 | 2.0 | 9.0 | 0.00 | 0.00 | 0.00 | 80 | 1018.4 |
| 20260831050105 | 61 | 0 | 2.0 | 9.0 | 0.00 | 0.00 | 0.00 | 81 | 1018.4 |
| 20260831045531 | 61 | 327 | 2.0 | 9.0 | 0.00 | 0.00 | 0.00 | 82 | 1018.4 |
| 20260831045032 | 61 | 0 | 0.0 | 5.0 | 0.00 | 0.00 | 0.00 | 83 | 1018.3 |
| 20260831044543 | 62 | 322 | 1.0 | 5.0 | 0.00 | 0.00 | 0.00 | 83 | 1018.2 |
| 20260831044030 | 62 | 260 | 1.0 | 4.0 | 0.00 | 0.00 | 0.00 | 84 | 1018.2 |
| 20260831043529 | 62 | 300 | 0.0 | 4.0 | 0.00 | 0.00 | 0.00 | 85 | 1018.2 |
| 20260831043055 | 62 | 0 | 0.0 | 4.0 | 0.00 | 0.00 | 0.00 | 86 | 1018.3 |
| 20260831042529 | 63 | 355 | 0.0 | 3.0 | 0.00 | 0.00 | 0.00 | 86 | 1018.3 |
| 20260831042034 | 63 | 0 | 1.0 | 3.0 | 0.00 | 0.00 | 0.00 | 87 | 1018.3 |
| 20260831041608 | 63 | 0 | 0.0 | 3.0 | 0.00 | 0.00 | 0.00 | 87 | 1018.3 |
| 20260831041033 | 63 | 0 | 0.0 | 4.0 | 0.00 | 0.00 | 0.00 | 87 | 1018.3 |
| 20260831040531 | 63 | 0 | 1.0 | 7.0 | 0.00 | 0.00 | 0.00 | 87 | 1018.3 |
| 20260831040043 | 63 | 313 | 1.0 | 7.0 | 0.00 | 0.00 | 0.00 | 87 | 1018.1 |
| 20260831035529 | 63 | 330 | 1.0 | 4.0 | 0.00 | 0.00 | 0.00 | 87 | 1018.3 |
| 20260831035028 | 63 | 15 | 2.0 | 4.0 | 0.00 | 0.00 | 0.00 | 87 | 1018.1 |
| 20260831034545 | 63 | 5 | 1.0 | 4.0 | 0.00 | 0.00 | 0.00 | 87 | 1018.1 |
| 20260831034029 | 63 | 340 | 1.0 | 4.0 | 0.00 | 0.00 | 0.00 | 86 | 1018.1 |
| 20260831033531 | 64 | 317 | 0.0 | 3.0 | 0.00 | 0.00 | 0.00 | 86 | 1018.0 |
| 20260831033109 | 64 | 0 | 0.0 | 3.0 | 0.00 | 0.00 | 0.00 | 86 | 1018.0 |
| 20260831032533 | 64 | 325 | 0.0 | 3.0 | 0.00 | 0.00 | 0.00 | 85 | 1018.0 |
| 20260831032028 | 64 | 341 | 0.0 | 3.0 | 0.00 | 0.00 | 0.00 | 85 | 1018.0 |
| 20260831031553 | 64 | 0 | 0.0 | 3.0 | 0.00 | 0.00 | 0.00 | 84 | 1018.0 |
| 20260831031028 | 64 | 0 | 0.0 | 3.0 | 0.00 | 0.00 | 0.00 | 85 | 1018.2 |
| 20260831030531 | 64 | 0 | 0.0 | 2.0 | 0.00 | 0.00 | 0.00 | 84 | 1018.1 |
| 20260831030047 | 64 | 266 | 0.0 | 2.0 | 0.00 | 0.00 | 0.00 | 84 | 1018.2 |
| 20260831025529 | 65 | 344 | 0.0 | 4.0 | 0.00 | 0.00 | 0.00 | 84 | 1018.2 |
| 20260831025029 | 65 | 0 | 0.0 | 4.0 | 0.00 | 0.00 | 0.00 | 83 | 1018.1 |
| 20260831024541 | 65 | 0 | 1.0 | 4.0 | 0.00 | 0.00 | 0.00 | 83 | 1018.1 |
| 20260831024030 | 65 | 265 | 1.0 | 4.0 | 0.00 | 0.00 | 0.00 | 83 | 1018.0 |
| 20260831023532 | 65 | 265 | 1.0 | 7.0 | 0.00 | 0.00 | 0.00 | 83 | 1018.1 |
| 20260831023053 | 65 | 0 | 1.0 | 7.0 | 0.00 | 0.00 | 0.00 | 83 | 1017.9 |
| 20260831022527 | 65 | 315 | 2.0 | 5.0 | 0.00 | 0.00 | 0.00 | 83 | 1018.0 |
| 20260831022030 | 65 | 0 | 1.0 | 5.0 | 0.00 | 0.00 | 0.00 | 83 | 1017.9 |
| 20260831021548 | 65 | 0 | 0.0 | 5.0 | 0.00 | 0.00 | 0.00 | 83 | 1017.8 |
| 20260831021029 | 65 | 317 | 0.0 | 5.0 | 0.00 | 0.00 | 0.00 | 83 | 1017.9 |
| 20260831020533 | 65 | 317 | 1.0 | 7.0 | 0.00 | 0.00 | 0.00 | 83 | 1017.8 |
| 20260831020044 | 65 | 321 | 2.0 | 7.0 | 0.00 | 0.00 | 0.00 | 83 | 1017.8 |
| 20260831015536 | 65 | 254 | 2.0 | 4.0 | 0.00 | 0.00 | 0.00 | 83 | 1017.8 |
| 20260831015032 | 65 | 253 | 1.0 | 4.0 | 0.00 | 0.00 | 0.00 | 83 | 1017.7 |
| 20260831014542 | 65 | 286 | 1.0 | 6.0 | 0.00 | 0.00 | 0.00 | 83 | 1017.6 |
| 20260831014029 | 65 | 259 | 2.0 | 6.0 | 0.00 | 0.00 | 0.00 | 83 | 1017.5 |
| 20260831013529 | 65 | 248 | 0.0 | 4.0 | 0.00 | 0.00 | 0.00 | 83 | 1017.5 |
| 20260831013056 | 65 | 268 | 1.0 | 6.0 | 0.00 | 0.00 | 0.00 | 82 | 1017.5 |
| 20260831012531 | 66 | 0 | 1.0 | 6.0 | 0.00 | 0.00 | 0.00 | 82 | 1017.4 |
| 20260831012031 | 66 | 293 | 1.0 | 8.0 | 0.00 | 0.00 | 0.00 | 82 | 1017.5 |
| 20260831011547 | 66 | 263 | 2.0 | 12.0 | 0.00 | 0.00 | 0.00 | 82 | 1017.4 |
| 20260831011029 | 66 | 259 | 2.0 | 12.0 | 0.00 | 0.00 | 0.00 | 81 | 1017.2 |
| 20260831010529 | 66 | 275 | 3.0 | 8.0 | 0.00 | 0.00 | 0.00 | 82 | 1017.1 |
| 20260831010058 | 66 | 266 | 3.0 | 13.0 | 0.00 | 0.00 | 0.00 | 82 | 1017.3 |
| 20260831005531 | 66 | 271 | 5.0 | 13.0 | 0.00 | 0.00 | 0.00 | 83 | 1017.2 |
| 20260831005030 | 66 | 286 | 4.0 | 13.0 | 0.00 | 0.00 | 0.00 | 83 | 1017.3 |
| 20260831004545 | 66 | 73 | 4.0 | 11.0 | 0.00 | 0.00 | 0.00 | 82 | 1017.1 |
| 20260831004030 | 66 | 319 | 3.0 | 8.0 | 0.00 | 0.00 | 0.00 | 82 | 1017.1 |
| 20260831003535 | 67 | 301 | 3.0 | 10.0 | 0.00 | 0.00 | 0.00 | 80 | 1017.1 |
| 20260831003057 | 67 | 352 | 2.0 | 10.0 | 0.00 | 0.00 | 0.00 | 80 | 1016.7 |
| 20260831002530 | 67 | 289 | 2.0 | 10.0 | 0.00 | 0.00 | 0.00 | 79 | 1016.7 |
| 20260831002033 | 67 | 349 | 3.0 | 10.0 | 0.00 | 0.00 | 0.00 | 78 | 1016.7 |
| 20260831001541 | 67 | 287 | 3.0 | 10.0 | 0.00 | 0.00 | 0.00 | 78 | 1016.5 |
| 20260831001030 | 68 | 352 | 4.0 | 10.0 | 0.00 | 0.00 | 0.00 | 77 | 1016.6 |
| 20260831000530 | 68 | 279 | 4.0 | 11.0 | 0.00 | 0.00 | 0.00 | 76 | 1016.4 |
| 20260831000043 | 68 | 296 | 4.0 | 11.0 | 0.00 | 0.00 | 0.00 | 76 | 1016.3 |
| 20260830235530 | 68 | 301 | 4.0 | 9.0 | 0.00 | 0.00 | 0.00 | 76 | 1016.2 |
| 20260830235033 | 69 | 239 | 3.0 | 7.0 | 0.00 | 0.00 | 0.00 | 76 | 1016.2 |
| 20260830234552 | 69 | 246 | 1.0 | 7.0 | 0.00 | 0.00 | 0.00 | 76 | 1016.1 |
| 20260830234029 | 69 | 0 | 2.0 | 11.0 | 0.00 | 0.00 | 0.00 | 75 | 1016.2 |
| 20260830233536 | 69 | 294 | 2.0 | 11.0 | 0.00 | 0.00 | 0.00 | 75 | 1016.1 |
| 20260830233042 | 69 | 256 | 4.0 | 11.0 | 0.00 | 0.00 | 0.00 | 75 | 1016.0 |
| 20260830232530 | 69 | 252 | 2.0 | 10.0 | 0.00 | 0.00 | 0.00 | 75 | 1016.0 |
| 20260830232030 | 69 | 272 | 4.0 | 12.0 | 0.00 | 0.00 | 0.00 | 75 | 1016.0 |
| 20260830231548 | 69 | 224 | 4.0 | 13.0 | 0.00 | 0.00 | 0.00 | 75 | 1015.9 |
| 20260830231030 | 69 | 254 | 4.0 | 13.0 | 0.00 | 0.00 | 0.00 | 75 | 1015.9 |
| 20260830230529 | 70 | 271 | 4.0 | 12.0 | 0.00 | 0.00 | 0.00 | 74 | 1015.8 |
| 20260830230048 | 70 | 247 | 5.0 | 12.0 | 0.00 | 0.00 | 0.00 | 74 | 1015.8 |
| 20260830225527 | 70 | 262 | 4.0 | 10.0 | 0.00 | 0.00 | 0.00 | 74 | 1015.9 |
| 20260830225027 | 70 | 257 | 4.0 | 9.0 | 0.00 | 0.00 | 0.00 | 74 | 1016.0 |
| 20260830224555 | 70 | 240 | 0.0 | 3.0 | 0.00 | 0.00 | 0.00 | 74 | 1015.9 |
| 20260830224032 | 70 | 0 | 0.0 | 3.0 | 0.00 | 0.00 | 0.00 | 73 | 1016.1 |
| 20260830223530 | 71 | 0 | 0.0 | 3.0 | 0.00 | 0.00 | 0.00 | 73 | 1015.9 |
| 20260830223047 | 71 | 0 | 0.0 | 2.0 | 0.00 | 0.00 | 0.00 | 73 | 1016.0 |
| 20260830222528 | 71 | 0 | 0.0 | 2.0 | 0.00 | 0.00 | 0.00 | 72 | 1015.9 |
| 20260830222039 | 71 | 0 | 0.0 | 2.0 | 0.00 | 0.00 | 0.00 | 71 | 1016.0 |
| 20260830221542 | 71 | 242 | 0.0 | 2.0 | 0.00 | 0.00 | 0.00 | 71 | 1015.9 |
| 20260830221029 | 71 | 261 | 0.0 | 2.0 | 0.00 | 0.00 | 0.00 | 70 | 1015.9 |
| 20260830220529 | 72 | 0 | 0.0 | 2.0 | 0.00 | 0.00 | 0.00 | 70 | 1016.0 |
| 20260830220056 | 72 | 0 | 0.0 | 3.0 | 0.00 | 0.00 | 0.00 | 69 | 1015.9 |
| 20260830215534 | 72 | 265 | 0.0 | 3.0 | 0.00 | 0.00 | 0.00 | 68 | 1016.0 |
| 20260830215030 | 72 | 273 | 1.0 | 3.0 | 0.00 | 0.00 | 0.00 | 68 | 1016.0 |
| 20260830214548 | 72 | 213 | 1.0 | 3.0 | 0.00 | 0.00 | 0.00 | 68 | 1016.0 |
| 20260830214029 | 72 | 246 | 0.0 | 3.0 | 0.00 | 0.00 | 0.00 | 67 | 1016.1 |
| 20260830213532 | 72 | 229 | 1.0 | 4.0 | 0.00 | 0.00 | 0.00 | 68 | 1016.1 |
| 20260830213043 | 72 | 273 | 1.0 | 4.0 | 0.00 | 0.00 | 0.00 | 67 | 1016.0 |
| 20260830212530 | 72 | 220 | 1.0 | 4.0 | 0.00 | 0.00 | 0.00 | 66 | 1016.0 |
| 20260830212030 | 72 | 228 | 1.0 | 5.0 | 0.00 | 0.00 | 0.00 | 66 | 1016.1 |
| 20260830211539 | 72 | 209 | 1.0 | 6.0 | 0.00 | 0.00 | 0.00 | 65 | 1016.0 |
| 20260830211030 | 72 | 252 | 3.0 | 6.0 | 0.00 | 0.00 | 0.00 | 65 | 1016.2 |
| 20260830210530 | 73 | 244 | 2.0 | 4.0 | 0.00 | 0.00 | 0.00 | 66 | 1016.2 |
| 20260830210100 | 73 | 229 | 1.0 | 4.0 | 0.00 | 0.00 | 0.00 | 65 | 1016.3 |
| 20260830205531 | 72 | 198 | 1.0 | 5.0 | 0.00 | 0.00 | 0.00 | 65 | 1016.2 |
| 20260830205029 | 72 | 299 | 1.0 | 5.0 | 0.00 | 0.00 | 0.00 | 66 | 1016.4 |
| 20260830204548 | 72 | 254 | 0.0 | 4.0 | 0.00 | 0.00 | 0.00 | 67 | 1016.3 |
| 20260830204029 | 72 | 263 | 1.0 | 4.0 | 0.00 | 0.00 | 0.00 | 67 | 1016.5 |
| 20260830203530 | 72 | 277 | 1.0 | 4.0 | 0.00 | 0.00 | 0.00 | 66 | 1016.5 |
| 20260830203043 | 72 | 292 | 2.0 | 6.0 | 0.00 | 0.00 | 0.00 | 66 | 1016.4 |
| 20260830202530 | 72 | 252 | 2.0 | 6.0 | 0.00 | 0.00 | 0.00 | 65 | 1016.6 |
| 20260830202030 | 72 | 272 | 1.0 | 6.0 | 0.00 | 0.00 | 0.00 | 66 | 1016.5 |
| 20260830201542 | 72 | 265 | 2.0 | 7.0 | 0.00 | 0.00 | 0.00 | 65 | 1016.5 |
| 20260830201029 | 72 | 273 | 1.0 | 7.0 | 0.00 | 0.00 | 0.00 | 64 | 1016.6 |
| 20260830200527 | 72 | 237 | 2.0 | 7.0 | 0.00 | 0.00 | 0.00 | 63 | 1016.7 |
| 20260830200105 | 72 | 248 | 4.0 | 6.0 | 0.00 | 0.00 | 0.00 | 64 | 1016.5 |
| 20260830195529 | 72 | 248 | 3.0 | 8.0 | 0.00 | 0.00 | 0.00 | 62 | 1016.6 |
| 20260830195027 | 72 | 248 | 3.0 | 8.0 | 0.00 | 0.00 | 0.00 | 63 | 1016.7 |
| 20260830194612 | 73 | 209 | 3.0 | 8.0 | 0.00 | 0.00 | 0.00 | 64 | 1016.8 |
| 20260830194029 | 73 | 232 | 4.0 | 8.0 | 0.00 | 0.00 | 0.00 | 62 | 1016.9 |
| 20260830193530 | 73 | 202 | 3.0 | 6.0 | 0.00 | 0.00 | 0.00 | 65 | 1016.9 |
| 20260830193045 | 72 | 224 | 3.0 | 7.0 | 0.00 | 0.00 | 0.00 | 62 | 1017.0 |
| 20260830192530 | 72 | 284 | 2.0 | 8.0 | 0.00 | 0.00 | 0.00 | 64 | 1017.2 |
| 20260830192030 | 72 | 248 | 3.0 | 8.0 | 0.00 | 0.00 | 0.00 | 64 | 1017.2 |
| 20260830191540 | 72 | 235 | 3.0 | 8.0 | 0.00 | 0.00 | 0.00 | 63 | 1017.3 |
| 20260830191029 | 72 | 245 | 2.0 | 7.0 | 0.00 | 0.00 | 0.00 | 65 | 1017.2 |
| 20260830190529 | 71 | 269 | 2.0 | 7.0 | 0.00 | 0.00 | 0.00 | 64 | 1017.3 |
| 20260830190042 | 71 | 252 | 2.0 | 8.0 | 0.00 | 0.00 | 0.00 | 64 | 1017.4 |
| 20260830185533 | 71 | 260 | 3.0 | 8.0 | 0.00 | 0.00 | 0.00 | 63 | 1017.4 |
| 20260830185032 | 71 | 223 | 4.0 | 9.0 | 0.00 | 0.00 | 0.00 | 64 | 1017.4 |
| 20260830184545 | 71 | 262 | 3.0 | 9.0 | 0.00 | 0.00 | 0.00 | 64 | 1017.5 |
| 20260830184029 | 72 | 229 | 3.0 | 10.0 | 0.00 | 0.00 | 0.00 | 63 | 1017.6 |
| 20260830183529 | 72 | 230 | 3.0 | 10.0 | 0.00 | 0.00 | 0.00 | 62 | 1017.7 |
| 20260830183044 | 72 | 290 | 6.0 | 10.0 | 0.00 | 0.00 | 0.00 | 64 | 1017.8 |
| 20260830182530 | 72 | 263 | 3.0 | 10.0 | 0.00 | 0.00 | 0.00 | 63 | 1017.8 |
| 20260830182030 | 72 | 271 | 2.0 | 10.0 | 0.00 | 0.00 | 0.00 | 65 | 1017.9 |
| 20260830181543 | 72 | 196 | 4.0 | 10.0 | 0.00 | 0.00 | 0.00 | 64 | 1017.9 |
| 20260830181032 | 72 | 235 | 4.0 | 9.0 | 0.00 | 0.00 | 0.00 | 64 | 1018.0 |
| 20260830180529 | 72 | 228 | 4.0 | 9.0 | 0.00 | 0.00 | 0.00 | 64 | 1018.1 |
| 20260830180056 | 71 | 242 | 3.0 | 9.0 | 0.00 | 0.00 | 0.00 | 65 | 1018.1 |
| 20260830175527 | 70 | 269 | 2.0 | 10.0 | 0.00 | 0.00 | 0.00 | 66 | 1018.1 |
| 20260830175028 | 70 | 277 | 3.0 | 10.0 | 0.00 | 0.00 | 0.00 | 66 | 1018.2 |
| 20260830174554 | 70 | 226 | 4.0 | 10.0 | 0.00 | 0.00 | 0.00 | 65 | 1018.3 |
| 20260830174027 | 71 | 237 | 4.0 | 10.0 | 0.00 | 0.00 | 0.00 | 65 | 1018.2 |
| 20260830173530 | 71 | 276 | 3.0 | 9.0 | 0.00 | 0.00 | 0.00 | 66 | 1018.3 |
| 20260830173102 | 71 | 180 | 3.0 | 9.0 | 0.00 | 0.00 | 0.00 | 65 | 1018.4 |
| 20260830172530 | 70 | 249 | 3.0 | 8.0 | 0.00 | 0.00 | 0.00 | 69 | 1018.2 |
| 20260830172032 | 70 | 255 | 3.0 | 8.0 | 0.00 | 0.00 | 0.00 | 67 | 1018.3 |
| 20260830171549 | 70 | 215 | 3.0 | 8.0 | 0.00 | 0.00 | 0.00 | 67 | 1018.5 |
| 20260830171029 | 70 | 259 | 3.0 | 6.0 | 0.00 | 0.00 | 0.00 | 69 | 1018.5 |
| 20260830170531 | 70 | 271 | 2.0 | 7.0 | 0.00 | 0.00 | 0.00 | 70 | 1018.5 |
| 20260830170056 | 69 | 0 | 1.0 | 9.0 | 0.00 | 0.00 | 0.00 | 72 | 1018.7 |
| 20260830165530 | 69 | 238 | 2.0 | 9.0 | 0.00 | 0.00 | 0.00 | 68 | 1018.7 |
| 20260830165030 | 69 | 246 | 2.0 | 9.0 | 0.00 | 0.00 | 0.00 | 69 | 1018.9 |
| 20260830164549 | 69 | 259 | 2.0 | 7.0 | 0.00 | 0.00 | 0.00 | 70 | 1018.9 |
| 20260830164030 | 69 | 275 | 2.0 | 6.0 | 0.00 | 0.00 | 0.00 | 72 | 1019.0 |
| 20260830163530 | 69 | 239 | 1.0 | 8.0 | 0.00 | 0.00 | 0.00 | 71 | 1018.9 |
| 20260830163055 | 69 | 259 | 2.0 | 10.0 | 0.00 | 0.00 | 0.00 | 72 | 1019.1 |
| 20260830162530 | 69 | 244 | 3.0 | 10.0 | 0.00 | 0.00 | 0.00 | 72 | 1019.1 |
| 20260830162045 | 69 | 277 | 3.0 | 10.0 | 0.00 | 0.00 | 0.00 | 72 | 1019.1 |
| 20260830161621 | 68 | 254 | 4.0 | 10.0 | 0.00 | 0.00 | 0.00 | 71 | 1018.9 |
| 20260830161027 | 68 | 0 | 4.0 | 11.0 | 0.00 | 0.00 | 0.00 | 72 | 1019.2 |
| 20260830160527 | 68 | 257 | 4.0 | 11.0 | 0.00 | 0.00 | 0.00 | 72 | 1019.3 |
| 20260830160052 | 67 | 216 | 5.0 | 11.0 | 0.00 | 0.00 | 0.00 | 73 | 1019.4 |
| 20260830155529 | 67 | 289 | 3.0 | 7.0 | 0.00 | 0.00 | 0.00 | 74 | 1019.2 |
| 20260830155028 | 67 | 264 | 3.0 | 7.0 | 0.00 | 0.00 | 0.00 | 73 | 1018.9 |
| 20260830154547 | 67 | 287 | 1.0 | 4.0 | 0.00 | 0.00 | 0.00 | 73 | 1018.6 |
| 20260830154030 | 67 | 275 | 1.0 | 10.0 | 0.00 | 0.00 | 0.00 | 73 | 1018.9 |
| 20260830153528 | 67 | 331 | 3.0 | 10.0 | 0.00 | 0.00 | 0.00 | 72 | 1019.0 |
| 20260830153049 | 67 | 296 | 3.0 | 10.0 | 0.00 | 0.00 | 0.00 | 71 | 1019.5 |
| 20260830152529 | 68 | 258 | 5.0 | 10.0 | 0.00 | 0.00 | 0.00 | 70 | 1019.5 |
| 20260830152029 | 68 | 257 | 5.0 | 10.0 | 0.00 | 0.00 | 0.00 | 70 | 1019.5 |
| 20260830151548 | 68 | 232 | 5.0 | 11.0 | 0.00 | 0.00 | 0.00 | 70 | 1019.4 |
| 20260830151029 | 68 | 249 | 4.0 | 11.0 | 0.00 | 0.00 | 0.00 | 70 | 1019.3 |
| 20260830150530 | 68 | 285 | 4.0 | 11.0 | 0.00 | 0.00 | 0.00 | 69 | 1019.3 |
| 20260830150105 | 68 | 233 | 3.0 | 9.0 | 0.00 | 0.00 | 0.00 | 69 | 1019.3 |
| 20260830145530 | 68 | 254 | 4.0 | 9.0 | 0.00 | 0.00 | 0.00 | 69 | 1019.4 |
| 20260830145034 | 68 | 237 | 5.0 | 9.0 | 0.00 | 0.00 | 0.00 | 69 | 1019.3 |
| 20260830144545 | 68 | 205 | 3.0 | 7.0 | 0.00 | 0.00 | 0.00 | 70 | 1019.4 |
| 20260830144030 | 68 | 192 | 3.0 | 9.0 | 0.00 | 0.00 | 0.00 | 71 | 1019.4 |
| 20260830143529 | 68 | 217 | 4.0 | 11.0 | 0.00 | 0.00 | 0.00 | 70 | 1019.4 |
| 20260830143053 | 68 | 302 | 3.0 | 11.0 | 0.00 | 0.00 | 0.00 | 69 | 1019.3 |
| 20260830142533 | 68 | 268 | 4.0 | 10.0 | 0.00 | 0.00 | 0.00 | 70 | 1019.5 |
| 20260830142029 | 68 | 252 | 5.0 | 10.0 | 0.00 | 0.00 | 0.00 | 71 | 1019.6 |
| 20260830141547 | 68 | 252 | 2.0 | 8.0 | 0.00 | 0.00 | 0.00 | 73 | 1019.5 |
| 20260830141026 | 68 | 257 | 4.0 | 8.0 | 0.00 | 0.00 | 0.00 | 73 | 1019.5 |
| 20260830140535 | 67 | 213 | 3.0 | 8.0 | 0.00 | 0.00 | 0.00 | 73 | 1019.4 |
| 20260830140048 | 67 | 286 | 2.0 | 9.0 | 0.00 | 0.00 | 0.00 | 72 | 1019.3 |
| 20260830135530 | 67 | 223 | 4.0 | 10.0 | 0.00 | 0.00 | 0.00 | 71 | 1019.2 |
| 20260830135030 | 66 | 249 | 5.0 | 10.0 | 0.00 | 0.00 | 0.00 | 72 | 1019.2 |
| 20260830134541 | 66 | 294 | 2.0 | 10.0 | 0.00 | 0.00 | 0.00 | 72 | 1019.2 |
| 20260830134030 | 66 | 253 | 3.0 | 8.0 | 0.00 | 0.00 | 0.00 | 72 | 1019.3 |
| 20260830133530 | 66 | 261 | 2.0 | 7.0 | 0.00 | 0.00 | 0.00 | 72 | 1019.3 |
| 20260830133053 | 66 | 229 | 3.0 | 7.0 | 0.00 | 0.00 | 0.00 | 72 | 1019.3 |
| 20260830132529 | 66 | 211 | 3.0 | 11.0 | 0.00 | 0.00 | 0.00 | 72 | 1019.3 |
| 20260830132030 | 66 | 212 | 4.0 | 11.0 | 0.00 | 0.00 | 0.00 | 72 | 1019.5 |
| 20260830131603 | 66 | 216 | 3.0 | 10.0 | 0.00 | 0.00 | 0.00 | 73 | 1019.4 |
| 20260830131029 | 65 | 240 | 3.0 | 9.0 | 0.00 | 0.00 | 0.00 | 72 | 1019.5 |
| 20260830130624 | 65 | 206 | 3.0 | 9.0 | 0.00 | 0.00 | 0.00 | 72 | 1019.4 |
| 20260830130046 | 65 | 252 | 3.0 | 9.0 | 0.00 | 0.00 | 0.00 | 72 | 1019.4 |
| 20260830125529 | 65 | 297 | 4.0 | 9.0 | 0.00 | 0.00 | 0.00 | 72 | 1019.4 |
| 20260830125030 | 65 | 194 | 3.0 | 8.0 | 0.00 | 0.00 | 0.00 | 73 | 1019.3 |
| 20260830124553 | 65 | 256 | 2.0 | 7.0 | 0.00 | 0.00 | 0.00 | 73 | 1019.6 |
| 20260830124035 | 65 | 283 | 3.0 | 9.0 | 0.00 | 0.00 | 0.00 | 72 | 1019.6 |
| 20260830123529 | 65 | 225 | 2.0 | 9.0 | 0.00 | 0.00 | 0.00 | 72 | 1019.6 |
| 20260830123050 | 64 | 298 | 3.0 | 9.0 | 0.00 | 0.00 | 0.00 | 73 | 1019.4 |
| 20260830122530 | 64 | 229 | 3.0 | 10.0 | 0.00 | 0.00 | 0.00 | 73 | 1019.5 |
| 20260830122029 | 63 | 225 | 2.0 | 10.0 | 0.00 | 0.00 | 0.00 | 75 | 1019.6 |
| 20260830121547 | 63 | 220 | 4.0 | 10.0 | 0.00 | 0.00 | 0.00 | 74 | 1019.7 |
| 20260830121031 | 62 | 234 | 2.0 | 7.0 | 0.00 | 0.00 | 0.00 | 75 | 1019.6 |
| 20260830120532 | 62 | 244 | 2.0 | 8.0 | 0.00 | 0.00 | 0.00 | 75 | 1019.7 |
| 20260830120055 | 62 | 280 | 3.0 | 8.0 | 0.00 | 0.00 | 0.00 | 75 | 1019.6 |
| 20260830115531 | 62 | 278 | 3.0 | 8.0 | 0.00 | 0.00 | 0.00 | 76 | 1019.7 |
| 20260830115033 | 62 | 234 | 2.0 | 8.0 | 0.00 | 0.00 | 0.00 | 77 | 1019.7 |
| 20260830114552 | 61 | 269 | 2.0 | 9.0 | 0.00 | 0.00 | 0.00 | 76 | 1019.7 |
| 20260830114030 | 61 | 263 | 4.0 | 9.0 | 0.00 | 0.00 | 0.00 | 77 | 1019.8 |
| 20260830113530 | 61 | 219 | 4.0 | 8.0 | 0.00 | 0.00 | 0.00 | 77 | 1020.0 |
| 20260830113046 | 61 | 261 | 3.0 | 8.0 | 0.00 | 0.00 | 0.00 | 77 | 1019.9 |
| 20260830112531 | 61 | 271 | 2.0 | 8.0 | 0.00 | 0.00 | 0.00 | 77 | 1020.0 |
| 20260830112031 | 61 | 252 | 2.0 | 7.0 | 0.00 | 0.00 | 0.00 | 77 | 1019.8 |
| 20260830111551 | 61 | 261 | 3.0 | 8.0 | 0.00 | 0.00 | 0.00 | 76 | 1019.9 |
| 20260830111030 | 61 | 261 | 2.0 | 8.0 | 0.00 | 0.00 | 0.00 | 76 | 1019.7 |
| 20260830110529 | 61 | 266 | 2.0 | 8.0 | 0.00 | 0.00 | 0.00 | 76 | 1019.9 |
| 20260830110041 | 61 | 227 | 3.0 | 8.0 | 0.00 | 0.00 | 0.00 | 76 | 1019.7 |
| 20260830105529 | 61 | 254 | 2.0 | 7.0 | 0.00 | 0.00 | 0.00 | 76 | 1019.6 |
| 20260830105029 | 61 | 272 | 2.0 | 7.0 | 0.00 | 0.00 | 0.00 | 76 | 1019.7 |
| 20260830104554 | 61 | 292 | 2.0 | 7.0 | 0.00 | 0.00 | 0.00 | 76 | 1019.6 |
| 20260830104032 | 61 | 259 | 3.0 | 7.0 | 0.00 | 0.00 | 0.00 | 76 | 1019.7 |
| 20260830103532 | 60 | 242 | 2.0 | 8.0 | 0.00 | 0.00 | 0.00 | 76 | 1019.8 |
| 20260830103045 | 60 | 301 | 1.0 | 8.0 | 0.00 | 0.00 | 0.00 | 76 | 1019.8 |
| 20260830102531 | 60 | 265 | 2.0 | 8.0 | 0.00 | 0.00 | 0.00 | 76 | 1019.7 |
| 20260830102028 | 60 | 245 | 2.0 | 7.0 | 0.00 | 0.00 | 0.00 | 76 | 1019.7 |
| 20260830101544 | 60 | 271 | 3.0 | 8.0 | 0.00 | 0.00 | 0.00 | 76 | 1019.7 |
| 20260830101033 | 60 | 259 | 3.0 | 8.0 | 0.00 | 0.00 | 0.00 | 76 | 1019.7 |
| 20260830100531 | 60 | 248 | 3.0 | 8.0 | 0.00 | 0.00 | 0.00 | 77 | 1019.7 |
| 20260830100050 | 60 | 283 | 3.0 | 7.0 | 0.00 | 0.00 | 0.00 | 77 | 1019.7 |
| 20260830095529 | 60 | 287 | 2.0 | 7.0 | 0.00 | 0.00 | 0.00 | 78 | 1019.7 |
| 20260830095028 | 60 | 259 | 1.0 | 7.0 | 0.00 | 0.00 | 0.00 | 78 | 1019.7 |
| 20260830094548 | 59 | 232 | 1.0 | 6.0 | 0.00 | 0.00 | 0.00 | 78 | 1019.7 |
| 20260830094031 | 59 | 270 | 1.0 | 7.0 | 0.00 | 0.00 | 0.00 | 78 | 1019.8 |
| 20260830093532 | 59 | 274 | 2.0 | 7.0 | 0.00 | 0.00 | 0.00 | 78 | 1019.8 |
| 20260830093044 | 59 | 265 | 2.0 | 7.0 | 0.00 | 0.00 | 0.00 | 78 | 1019.8 |
| 20260830092529 | 59 | 265 | 1.0 | 6.0 | 0.00 | 0.00 | 0.00 | 77 | 1019.8 |
| 20260830092030 | 59 | 288 | 1.0 | 6.0 | 0.00 | 0.00 | 0.00 | 77 | 1019.9 |
| 20260830091547 | 60 | 322 | 0.0 | 4.0 | 0.00 | 0.00 | 0.00 | 77 | 1019.9 |
| 20260830091030 | 60 | 316 | 1.0 | 4.0 | 0.00 | 0.00 | 0.00 | 77 | 1019.8 |
| 20260830090533 | 60 | 0 | 0.0 | 8.0 | 0.00 | 0.00 | 0.00 | 76 | 1020.0 |
| 20260830090053 | 60 | 263 | 1.0 | 8.0 | 0.00 | 0.00 | 0.00 | 76 | 1020.1 |
| 20260830085529 | 60 | 264 | 2.0 | 4.0 | 0.00 | 0.00 | 0.00 | 76 | 1020.1 |
| 20260830085028 | 60 | 0 | 1.0 | 7.0 | 0.00 | 0.00 | 0.00 | 76 | 1020.1 |
| 20260830084542 | 60 | 262 | 2.0 | 7.0 | 0.00 | 0.00 | 0.00 | 77 | 1020.1 |
| 20260830084030 | 59 | 286 | 2.0 | 7.0 | 0.00 | 0.00 | 0.00 | 77 | 1020.1 |
| 20260830083530 | 59 | 260 | 1.0 | 6.0 | 0.00 | 0.00 | 0.00 | 79 | 1020.2 |
| 20260830083052 | 59 | 287 | 2.0 | 5.0 | 0.00 | 0.00 | 0.00 | 79 | 1020.3 |
| 20260830082531 | 59 | 254 | 1.0 | 5.0 | 0.00 | 0.00 | 0.00 | 79 | 1020.2 |
| 20260830082029 | 59 | 280 | 2.0 | 5.0 | 0.00 | 0.00 | 0.00 | 79 | 1020.1 |
| 20260830081547 | 58 | 254 | 1.0 | 4.0 | 0.00 | 0.00 | 0.00 | 79 | 1020.2 |
| 20260830081030 | 58 | 264 | 2.0 | 4.0 | 0.00 | 0.00 | 0.00 | 80 | 1020.1 |
| 20260830080531 | 58 | 238 | 1.0 | 4.0 | 0.00 | 0.00 | 0.00 | 79 | 1020.1 |
| 20260830080048 | 58 | 0 | 0.0 | 4.0 | 0.00 | 0.00 | 0.00 | 79 | 1020.2 |
| 20260830075528 | 58 | 227 | 0.0 | 6.0 | 0.00 | 0.00 | 0.00 | 79 | 1020.3 |
| 20260830075029 | 58 | 227 | 1.0 | 6.0 | 0.00 | 0.00 | 0.00 | 79 | 1020.2 |
| 20260830074558 | 58 | 265 | 2.0 | 6.0 | 0.00 | 0.00 | 0.00 | 79 | 1020.3 |
| 20260830074029 | 58 | 255 | 0.0 | 4.0 | 0.00 | 0.00 | 0.00 | 80 | 1020.3 |
| 20260830073529 | 58 | 323 | 0.0 | 6.0 | 0.00 | 0.00 | 0.00 | 80 | 1020.2 |
| 20260830073056 | 58 | 245 | 2.0 | 6.0 | 0.00 | 0.00 | 0.00 | 80 | 1020.2 |
| 20260830072532 | 58 | 238 | 2.0 | 5.0 | 0.00 | 0.00 | 0.00 | 81 | 1020.1 |
| 20260830072029 | 58 | 286 | 1.0 | 5.0 | 0.00 | 0.00 | 0.00 | 81 | 1020.0 |
| 20260830071549 | 58 | 259 | 1.0 | 5.0 | 0.00 | 0.00 | 0.00 | 81 | 1020.0 |
| 20260830071029 | 57 | 267 | 2.0 | 5.0 | 0.00 | 0.00 | 0.00 | 82 | 1020.0 |
| 20260830070531 | 57 | 288 | 0.0 | 4.0 | 0.00 | 0.00 | 0.00 | 81 | 1020.0 |
| 20260830070045 | 58 | 0 | 1.0 | 4.0 | 0.00 | 0.00 | 0.00 | 80 | 1020.0 |
| 20260830065528 | 58 | 263 | 0.0 | 5.0 | 0.00 | 0.00 | 0.00 | 80 | 1020.0 |
| 20260830065028 | 58 | 0 | 1.0 | 5.0 | 0.00 | 0.00 | 0.00 | 80 | 1020.0 |
| 20260830064558 | 58 | 299 | 1.0 | 3.0 | 0.00 | 0.00 | 0.00 | 80 | 1020.0 |
| 20260830064032 | 57 | 0 | 1.0 | 3.0 | 0.00 | 0.00 | 0.00 | 80 | 1020.1 |
| 20260830063532 | 57 | 0 | 1.0 | 3.0 | 0.00 | 0.00 | 0.00 | 80 | 1020.1 |
| 20260830063052 | 58 | 285 | 0.0 | 4.0 | 0.00 | 0.00 | 0.00 | 80 | 1020.1 |
| 20260830062527 | 57 | 0 | 1.0 | 4.0 | 0.00 | 0.00 | 0.00 | 80 | 1020.2 |
| 20260830062031 | 58 | 0 | 0.0 | 3.0 | 0.00 | 0.00 | 0.00 | 80 | 1020.3 |
| 20260830061553 | 58 | 0 | 0.0 | 4.0 | 0.00 | 0.00 | 0.00 | 79 | 1020.3 |
| 20260830061030 | 58 | 0 | 0.0 | 4.0 | 0.00 | 0.00 | 0.00 | 79 | 1020.3 |
| 20260830060529 | 58 | 355 | 0.0 | 3.0 | 0.00 | 0.00 | 0.00 | 79 | 1020.4 |
| 20260830060047 | 58 | 0 | 0.0 | 4.0 | 0.00 | 0.00 | 0.00 | 79 | 1020.4 |
| 20260830055528 | 58 | 252 | 1.0 | 4.0 | 0.00 | 0.00 | 0.00 | 79 | 1020.5 |
| 20260830055028 | 58 | 0 | 0.0 | 4.0 | 0.00 | 0.00 | 0.00 | 79 | 1020.5 |
| 20260830054551 | 58 | 319 | 1.0 | 6.0 | 0.00 | 0.00 | 0.00 | 79 | 1020.6 |
| 20260830054028 | 58 | 355 | 1.0 | 6.0 | 0.00 | 0.00 | 0.00 | 80 | 1020.5 |